Regional Weather Roundup
Issued by NWS Newport/Morehead, NC

Current Version | Previous Version | Text Only | Print | Product List | Glossary On
Versions: 1 2 3 4 5 6 7 8 9 10 11 12 13 14 15 16 17 18 19 20 21 22 23 24 25 26 27 28 29 30 31 32 33 34 35 36 37 38 39 40 41 42 43 44 45 46 47 48 49 50
000
ASUS42 KMHX 301322
RWRMHX
WEATHER ROUNDUP FOR EASTERN NORTH CAROLINA
NATIONAL WEATHER SERVICE NEWPORT/MOREHEAD CITY NC
800 AM EST FRI JAN 30 2015

NOTE: "FAIR" INDICATES FEW OR NO CLOUDS BELOW 12,000 FEET
WITH NO SIGNIFICANT WEATHER AND/OR OBSTRUCTIONS TO VISIBILITY

NCZ015>017-031-032-045>047-102-103-301400-
NORTH COAST

CITY           SKY/WX    TMP DP  RH WIND       PRES   REMARKS
EDENTON        LGT RAIN  41  37  88 N10       29.99R
ELIZABETH CITY LGT RAIN  41  37  86 NW10      29.97R
KITTY HAWK     LGT RAIN  42  39  89 W12       29.94R
MANTEO         DRIZZLE   43  37  81 NW13G20   29.96R

$$

NCZ045>047-081-094-103-104-301400-
CENTRAL COAST

CITY           SKY/WX    TMP DP  RH WIND       PRES   REMARKS
FRISCO         CLOUDY    48  41  76 NW10G21   29.94S
SWANQUARTER    NOT AVBL

$$

NCZ095-097-098-100-101-301400-
SOUTHERN COAST

CITY           SKY/WX    TMP DP  RH WIND       PRES   REMARKS
BEAUFORT       LGT RAIN  48  43  82 NW15      29.97R
CEDAR ISLAND   NOT AVBL
JACKSONVILLE   CLOUDY    48  40  73 NW13      29.98R
PINEY ISLAND     N/A    N/A N/A N/A MISG      29.96R
WILMINGTON     CLOUDY    49  41  74 NW15      29.98R


$$

NCZ011>013-027>030-043-044-078>080-089-090>093-098-301400-
COASTAL PLAIN

CITY           SKY/WX    TMP DP  RH WIND       PRES   REMARKS
AHOSKIE        CLOUDY    38  35  90 CALM      30.00R
CLINTON        CLOUDY    46  34  62 NW8G17    30.03R
ELIZABETHTOWN  PTCLDY    47  33  57 NW7G21    30.03R
GOLDSBORO      CLOUDY    44  42  95 NW5       30.00R
GREENVILLE     LGT RAIN  43  36  75 N5        30.02R
HAVELOCK       LGT RAIN  48  41  76 W12       29.98R
KENANSVILLE    CLOUDY    45  34  66 NW12      30.03R
KINSTON        CLOUDY    43  36  75 NW9       30.02R
NEW BERN       LGT RAIN  48  39  71 NW12      29.99R
RICHLANDS      CLOUDY    46  34  61 NW12G18   30.00R
ROCKY MOUNT    MOCLDY    41  30  65 NW6       30.02R
WASHINGTON     CLOUDY    43  37  80 NW9G17    30.00R
WHITEVILLE     PTCLDY    48  35  59 NW3       30.01S

$$

AMZ130-135-150-152-154-156-158-170-250-252-270-ANZ085-086-088-633-658-670-301400-
MARINE OBSERVATIONS

STATION/POSITION TIME  TEMP    WIND        PRES    WAVE   SWELL
                       AIR SEA DIR/SP/G            HT/PER HT/PER
                 (UTC) (F)     (DEG/KT/KT) (MB)    (FT/S) (FT/S)
CHESAPEAKE LIGHT 1300   40     340/ 12/ 15 1015.2
64 E VA BEACH    1300   43 49  320/ 19/ 23 1013.1    4/ 4   2/11
DUCK             1300   42 44  310/ 13/ 17 1013.7
2 E DUCK         1300      43                N/A     2/10
10 NE DUCK       1300      44                N/A     2/11   2/11
OREGON INLET     1300   44 43  290/ 10/ 15 1014.1
13E OREGON INLT  1300      43                N/A     3/ 6   2/12
HATTERAS CG      1300   49 45  300/ 18/ 21 1014.2
DIAMOND BUOY     1300   56 69  290/ 23/ 29 1012.7    7/ 7   2/10
17 S OCRACOKE    NOT AVBL
CAPE LOOKOUT     1300   50     290/ 16/ 20 1014.3
BEAUFORT LAB     1300   49 47  310/  8/ 17 1013.6
27 SE WRIGHTSVLE NOT AVBL
5 SE WRIGHTSVLE  1300   52 52  310/ 17/ 19 1014.9
225 S CAPE HAT   1241   67 72  230/ 23/ 29 1016.6    5/ 5   2/11
41 SE CHARLESTON 1300   58 68  270/ 23/ 29 1016.5    5/ 6   2/10

$$


USA.gov is the U.S. government's official web portal to all federal, state and local government web resources and services.